Regional Weather Roundup
Issued by NWS

Home | Current Version | Previous Version | Graphics & Text | Print | Product List | Glossary On
Versions: 1 2 3 4 5 6 7 8 9 10 11 12 13 14 15 16 17 18 19 20 21 22 23 24 25 26 27 28 29 30 31 32 33 34 35 36 37 38 39 40 41 42 43 44 45 46 47 48 49
000
ASUS45 KCYS 240110
RWRWY

WYOMING REGIONAL WEATHER ROUNDUP
NATIONAL WEATHER SERVICE CHEYENNE WY
600 PM MST FRI JAN 23 2015

NOTE:  "FAIR" INDICATES FEW OR NO CLOUDS BELOW 12,000 FEET
WITH NO SIGNIFICANT WEATHER AND/OR OBSTRUCTIONS TO VISIBILITY.

WYZ001-240200-
YELLOWSTONE NATIONAL PARK

CITY           SKY/WX    TMP DP  RH WIND       PRES   REMARKS
LK YELLOWSTONE   N/A     12   8  84 CALM      30.41R
W YELLOWSTONE  NOT AVBL

$$
WYZ002>013-054>058-071-098>099-240200-
NORTHERN WYOMING

CITY           SKY/WX    TMP DP  RH WIND       PRES   REMARKS
JACKSON        CLEAR     18  12  79 CALM      30.42F
CODY           FAIR      28  25  86 NE7       30.24R WCI  21
GREYBULL       FAIR      23  17  78 SE6       30.29R WCI  16
WORLAND        FAIR      14  11  87 CALM      30.28S
SHERIDAN       FAIR      32  23  69 SW8       30.21R WCI  25
BUFFALO        FAIR      34  22  61 S6        30.21S WCI  29
GILLETTE       FAIR      34  26  72 W10       30.19S WCI  26
HULETT           N/A    N/A N/A N/A MISG        N/A
NEWCASTLE      FAIR      32  27  80 CALM      30.19S

$$
WYZ014>020-022>026-101>103-240200-
CENTRAL WYOMING

CITY           SKY/WX    TMP DP  RH WIND       PRES   REMARKS
BIG PINEY      FAIR      23  15  71 N13       30.34R WCI  11
PINEDALE       FAIR      18  12  79 NW3       30.34R
DUBOIS         FAIR      32  12  43 NW13      30.28S WCI  22
LANDER         FAIR      28  21  75 CALM      30.29R
RIVERTON       FAIR      25  17  72 E3        30.30S
CASPER         FAIR      31  20  63 SW13      30.28R WCI  21
DOUGLAS        FAIR      32  25  75 NW8       30.26R WCI  25

$$
WYZ021-027>030-104>119-240200-
SOUTHERN WYOMING

CITY           SKY/WX    TMP DP  RH WIND       PRES   REMARKS
EVANSTON       FAIR      26  17  68 NW9       30.39R WCI  17
FORT BRIDGER   FAIR      28  22  77 W15       30.41R WCI  16
ROCK SPRINGS   FAIR      27  19  72 W12       30.35R WCI  17
DIXON          FAIR      25  16  67 CALM      30.36S
RAWLINS        FAIR      27  12  53 W8        30.31R WCI  19
SARATOGA       CLOUDY    30  18  59 MISG      30.32R
LARAMIE        CLOUDY    24  15  68 E8        30.25S WCI  15
CHEYENNE       FAIR      33  16  49 NW9       30.24R WCI  25
TORRINGTON     FAIR      38  23  55 W9        30.21R WCI  31
PINE BLUFFS    MOCLDY    34  19  55 NW10      30.23S WCI  26

$$


USA.gov is the U.S. government's official web portal to all federal, state and local government web resources and services.